User: anonymous   Login
Location: Unspecified
(0.0000°N, 0.0000°E)
Time: 08:54:06
(UTC+00:00)
Language:

ONEWEB-0710 - Orbit

View from above orbital plane
View from above orbital plane
View from above satellite
View from above satellite

Ground track
Ground track

The orbit is defined by the following mean orbital elements,

1 55173U          26145.34700089 +.00000000 +00000-0 +72002-3 0 00007
2 55173  87.9153  10.4083 0002036  88.2961 271.8404 13.17648077    07
Epoch (UTC): 25 May 2026 08:19:40
Eccentricity: 0.0002036
inclination: 87.9153°
perigee height: 1192 km
apogee height: 1195 km
right ascension of ascending node: 10.4083°
argument of perigee: 88.2961°
revolutions per day: 13.17648077
mean anomaly at epoch: 271.8404°

The dashed part of the orbit path shows where the satellite is in the earth's shadow,  

DLR